Time,TemperatureF,DewpointF,PressureIn,WindDirection,WindDirectionDegrees,WindSpeedMPH,WindSpeedGustMPH,Humidity,HourlyPrecipIn,Conditions,Clouds,dailyrainin,SoftwareType,DateUTC
2013-01-22 00:14:00,2.3,-3.0,30.42,West,264,1.0,7.0,77,0.00,,,0.00,weatherlink.com 1.10,2013-01-22 06:14:00,
2013-01-22 00:29:00,2.2,-3.0,30.41,West,281,1.0,5.0,77,0.00,,,0.00,weatherlink.com 1.10,2013-01-22 06:29:00,
2013-01-22 00:44:00,2.1,-4.0,30.41,NW,310,1.0,5.0,77,0.00,,,0.00,weatherlink.com 1.10,2013-01-22 06:44:00,
2013-01-22 00:59:00,1.8,-4.0,30.42,WNW,285,2.0,5.0,78,0.00,,,0.00,weatherlink.com 1.10,2013-01-22 06:59:00,
2013-01-22 01:14:00,1.7,-4.0,30.42,West,263,1.0,4.0,78,0.00,,,0.00,weatherlink.com 1.10,2013-01-22 07:14:00,
2013-01-22 01:29:00,1.7,-4.0,30.42,WNW,284,1.0,7.0,78,0.00,,,0.00,weatherlink.com 1.10,2013-01-22 07:29:00,
2013-01-22 01:44:00,1.5,-4.0,30.42,West,270,2.0,4.0,79,0.00,,,0.00,weatherlink.com 1.10,2013-01-22 07:44:00,
2013-01-22 01:59:00,1.7,-3.0,30.43,WNW,288,0.0,5.0,79,0.00,,,0.00,weatherlink.com 1.10,2013-01-22 07:59:00,
2013-01-22 02:14:00,1.7,-3.0,30.43,WNW,290,3.0,5.0,79,0.00,,,0.00,weatherlink.com 1.10,2013-01-22 08:14:00,
2013-01-22 02:29:00,1.8,-3.0,30.44,West,264,2.0,7.0,79,0.00,,,0.00,weatherlink.com 1.10,2013-01-22 08:29:00,
2013-01-22 02:44:00,2.0,-3.0,30.44,WNW,290,3.0,7.0,79,0.00,,,0.00,weatherlink.com 1.10,2013-01-22 08:44:00,
2013-01-22 02:59:00,2.0,-3.0,30.44,WNW,287,2.0,8.0,78,0.00,,,0.00,weatherlink.com 1.10,2013-01-22 08:59:00,
2013-01-22 03:14:00,2.1,-3.0,30.44,West,280,2.0,7.0,78,0.00,,,0.00,weatherlink.com 1.10,2013-01-22 09:14:00,
2013-01-22 03:29:00,2.1,-3.0,30.45,West,280,0.0,7.0,78,0.00,,,0.00,weatherlink.com 1.10,2013-01-22 09:29:00,
2013-01-22 03:44:00,1.9,-4.0,30.45,WNW,287,1.0,7.0,78,0.00,,,0.00,weatherlink.com 1.10,2013-01-22 09:44:00,
2013-01-22 03:59:00,1.7,-4.0,30.45,WNW,285,1.0,9.0,77,0.00,,,0.00,weatherlink.com 1.10,2013-01-22 09:59:00,
2013-01-22 04:14:00,1.4,-4.0,30.45,West,262,1.0,6.0,78,0.00,,,0.00,weatherlink.com 1.10,2013-01-22 10:14:00,
2013-01-22 04:29:00,1.4,-4.0,30.45,WNW,291,4.0,7.0,78,0.00,,,0.00,weatherlink.com 1.10,2013-01-22 10:29:00,
2013-01-22 04:44:00,1.3,-4.0,30.45,NW,319,1.0,8.0,77,0.00,,,0.00,weatherlink.com 1.10,2013-01-22 10:44:00,
2013-01-22 04:59:00,1.2,-5.0,30.45,NW,305,4.0,8.0,76,0.00,,,0.00,weatherlink.com 1.10,2013-01-22 10:59:00,
2013-01-22 05:14:00,0.9,-5.0,30.46,NW,305,5.0,8.0,75,0.00,,,0.00,weatherlink.com 1.10,2013-01-22 11:14:00,
2013-01-22 05:30:00,0.6,-7.0,30.46,WNW,298,4.0,12.0,71,0.00,,,0.00,weatherlink.com 1.10,2013-01-22 11:30:00,
2013-01-22 05:45:00,0.2,-7.0,30.46,NW,308,1.0,5.0,72,0.00,,,0.00,weatherlink.com 1.10,2013-01-22 11:45:00,
2013-01-22 06:00:00,0.0,-7.0,30.46,NW,306,2.0,5.0,72,0.00,,,0.00,weatherlink.com 1.10,2013-01-22 12:00:00,
2013-01-22 06:15:00,-0.2,-7.0,30.47,North,353,2.0,5.0,73,0.00,,,0.00,weatherlink.com 1.10,2013-01-22 12:15:00,
2013-01-22 06:30:00,-0.3,-7.0,30.47,NW,307,1.0,2.0,73,0.00,,,0.00,weatherlink.com 1.10,2013-01-22 12:30:00,
2013-01-22 06:45:00,-0.3,-7.0,30.48,NW,314,0.0,3.0,72,0.00,,,0.00,weatherlink.com 1.10,2013-01-22 12:45:00,
2013-01-22 07:00:00,-0.3,-7.0,30.48,NW,314,1.0,3.0,73,0.00,,,0.00,weatherlink.com 1.10,2013-01-22 13:00:00,
2013-01-22 07:15:00,-0.4,-7.0,30.48,WNW,294,0.0,2.0,73,0.00,,,0.00,weatherlink.com 1.10,2013-01-22 13:15:00,
2013-01-22 07:30:00,-0.4,-7.0,30.48,NW,305,1.0,3.0,73,0.00,,,0.00,weatherlink.com 1.10,2013-01-22 13:30:00,
2013-01-22 07:45:00,-0.4,-7.0,30.49,West,278,0.0,1.0,75,0.00,,,0.00,weatherlink.com 1.10,2013-01-22 13:45:00,
2013-01-22 08:00:00,0.5,-6.0,30.49,West,267,2.0,2.0,75,0.00,,,0.00,weatherlink.com 1.10,2013-01-22 14:00:00,
2013-01-22 08:15:00,1.4,-6.0,30.49,WNW,294,2.0,4.0,72,0.00,,,0.00,weatherlink.com 1.10,2013-01-22 14:15:00,
2013-01-22 08:30:00,2.2,-5.0,30.49,WNW,293,3.0,5.0,73,0.00,,,0.00,weatherlink.com 1.10,2013-01-22 14:30:00,
2013-01-22 08:45:00,3.3,-4.0,30.49,NW,305,1.0,7.0,73,0.00,,,0.00,weatherlink.com 1.10,2013-01-22 14:45:00,
2013-01-22 09:00:00,3.2,-4.0,30.50,West,280,2.0,4.0,71,0.00,,,0.00,weatherlink.com 1.10,2013-01-22 15:00:00,
2013-01-22 09:15:00,4.4,-3.0,30.50,WNW,285,2.0,6.0,71,0.00,,,0.00,weatherlink.com 1.10,2013-01-22 15:15:00,
2013-01-22 09:30:00,4.4,-3.0,30.50,NW,309,2.0,7.0,70,0.00,,,0.00,weatherlink.com 1.10,2013-01-22 15:30:00,
2013-01-22 09:45:00,5.4,-3.0,30.51,West,274,2.0,7.0,69,0.00,,,0.00,weatherlink.com 1.10,2013-01-22 15:45:00,
2013-01-22 10:00:00,5.9,-3.0,30.51,West,274,5.0,8.0,68,0.00,,,0.00,weatherlink.com 1.10,2013-01-22 16:00:00,
2013-01-22 10:15:00,5.5,-3.0,30.52,WSW,250,9.0,9.0,67,0.00,,,0.00,weatherlink.com 1.10,2013-01-22 16:15:00,
2013-01-22 10:30:00,6.3,-2.0,30.52,West,260,1.0,8.0,68,0.00,,,0.00,weatherlink.com 1.10,2013-01-22 16:30:00,
2013-01-22 10:45:00,6.6,-3.0,30.52,WSW,257,9.0,9.0,66,0.00,,,0.00,weatherlink.com 1.10,2013-01-22 16:45:00,
2013-01-22 11:00:00,7.2,-3.0,30.51,NW,315,6.0,9.0,64,0.00,,,0.00,weatherlink.com 1.10,2013-01-22 17:00:00,
2013-01-22 11:15:00,6.9,-3.0,30.51,WNW,284,2.0,9.0,63,0.00,,,0.00,weatherlink.com 1.10,2013-01-22 17:15:00,
2013-01-22 11:30:00,7.7,-3.0,30.50,NW,316,3.0,9.0,62,0.00,,,0.00,weatherlink.com 1.10,2013-01-22 17:30:00,
2013-01-22 11:45:00,8.4,-3.0,30.50,WNW,289,3.0,11.0,61,0.00,,,0.00,weatherlink.com 1.10,2013-01-22 17:45:00,
2013-01-22 12:00:00,9.5,-2.0,30.49,WNW,292,3.0,10.0,59,0.00,,,0.00,weatherlink.com 1.10,2013-01-22 18:00:00,
2013-01-22 12:15:00,9.7,-3.0,30.49,WSW,248,5.0,12.0,58,0.00,,,0.00,weatherlink.com 1.10,2013-01-22 18:15:00,
2013-01-22 12:30:00,10.6,-1.0,30.48,WNW,287,1.0,9.0,59,0.00,,,0.00,weatherlink.com 1.10,2013-01-22 18:30:00,
2013-01-22 12:45:00,11.0,-2.0,30.47,NW,311,3.0,10.0,57,0.00,,,0.00,weatherlink.com 1.10,2013-01-22 18:45:00,
2013-01-22 13:00:00,11.7,-1.0,30.46,WNW,288,2.0,10.0,56,0.00,,,0.00,weatherlink.com 1.10,2013-01-22 19:00:00,
2013-01-22 13:15:00,12.1,-1.0,30.46,NNW,333,4.0,13.0,56,0.00,,,0.00,weatherlink.com 1.10,2013-01-22 19:15:00,
2013-01-22 13:30:00,12.3,-1.0,30.45,NW,326,2.0,10.0,55,0.00,,,0.00,weatherlink.com 1.10,2013-01-22 19:30:00,
2013-01-22 13:45:00,12.6,-1.0,30.45,WNW,284,5.0,10.0,55,0.00,,,0.00,weatherlink.com 1.10,2013-01-22 19:45:00,
2013-01-22 14:00:00,12.6,-1.0,30.45,WNW,292,5.0,10.0,55,0.00,,,0.00,weatherlink.com 1.10,2013-01-22 20:00:00,
2013-01-22 14:15:00,12.9,-1.0,30.43,West,278,5.0,8.0,54,0.00,,,0.00,weatherlink.com 1.10,2013-01-22 20:15:00,
2013-01-22 14:30:00,12.9,-1.0,30.44,WNW,298,7.0,11.0,54,0.00,,,0.00,weatherlink.com 1.10,2013-01-22 20:30:00,
2013-01-22 14:45:00,12.9,0.0,30.45,WNW,284,4.0,9.0,56,0.00,,,0.00,weatherlink.com 1.10,2013-01-22 20:45:00,
2013-01-22 15:00:00,13.3,0.0,30.44,NNE,31,1.0,8.0,55,0.00,,,0.00,weatherlink.com 1.10,2013-01-22 21:00:00,
2013-01-22 15:15:00,13.0,0.0,30.43,West,267,4.0,8.0,56,0.00,,,0.00,weatherlink.com 1.10,2013-01-22 21:15:00,
2013-01-22 15:30:00,12.7,0.0,30.44,WNW,297,1.0,8.0,57,0.00,,,0.00,weatherlink.com 1.10,2013-01-22 21:30:00,
2013-01-22 15:45:00,12.8,0.0,30.43,WNW,283,5.0,7.0,57,0.00,,,0.00,weatherlink.com 1.10,2013-01-22 21:45:00,
2013-01-22 16:00:00,12.8,0.0,30.43,West,273,5.0,11.0,56,0.00,,,0.00,weatherlink.com 1.10,2013-01-22 22:00:00,
2013-01-22 16:16:00,12.9,0.0,30.43,West,264,2.0,7.0,57,0.00,,,0.00,weatherlink.com 1.10,2013-01-22 22:16:00,
2013-01-22 16:31:00,12.6,0.0,30.43,WNW,296,5.0,6.0,57,0.00,,,0.00,weatherlink.com 1.10,2013-01-22 22:31:00,
2013-01-22 16:46:00,12.7,0.0,30.43,West,278,0.0,6.0,58,0.00,,,0.00,weatherlink.com 1.10,2013-01-22 22:46:00,
2013-01-22 17:01:00,12.6,0.0,30.43,NW,322,2.0,6.0,58,0.00,,,0.00,weatherlink.com 1.10,2013-01-22 23:01:00,
2013-01-22 17:16:00,12.6,0.0,30.43,WNW,282,0.0,5.0,58,0.00,,,0.00,weatherlink.com 1.10,2013-01-22 23:16:00,
2013-01-22 17:31:00,12.6,0.0,30.43,WNW,284,2.0,7.0,58,0.00,,,0.00,weatherlink.com 1.10,2013-01-22 23:31:00,
2013-01-22 17:46:00,12.6,0.0,30.43,WNW,283,0.0,7.0,57,0.00,,,0.00,weatherlink.com 1.10,2013-01-22 23:46:00,
2013-01-22 18:01:00,12.6,0.0,30.43,NNE,12,5.0,7.0,58,0.00,,,0.00,weatherlink.com 1.10,2013-01-23 00:01:00,
2013-01-22 18:16:00,12.5,0.0,30.43,NW,321,3.0,5.0,57,0.00,,,0.00,weatherlink.com 1.10,2013-01-23 00:16:00,
2013-01-22 18:31:00,12.4,0.0,30.43,West,263,3.0,4.0,58,0.00,,,0.00,weatherlink.com 1.10,2013-01-23 00:31:00,
2013-01-22 18:46:00,12.4,0.0,30.43,NW,309,4.0,5.0,59,0.00,,,0.00,weatherlink.com 1.10,2013-01-23 00:46:00,
2013-01-22 19:01:00,12.4,1.0,30.42,NW,311,1.0,4.0,60,0.00,,,0.00,weatherlink.com 1.10,2013-01-23 01:01:00,
2013-01-22 19:16:00,12.4,0.0,30.42,WNW,294,2.0,5.0,59,0.00,,,0.00,weatherlink.com 1.10,2013-01-23 01:16:00,
2013-01-22 19:31:00,12.5,1.0,30.42,NW,309,3.0,6.0,60,0.00,,,0.00,weatherlink.com 1.10,2013-01-23 01:31:00,
2013-01-22 19:46:00,12.5,1.0,30.42,NW,309,0.0,6.0,60,0.00,,,0.00,weatherlink.com 1.10,2013-01-23 01:46:00,
2013-01-22 20:01:00,12.5,1.0,30.42,West,271,0.0,4.0,61,0.00,,,0.00,weatherlink.com 1.10,2013-01-23 02:01:00,
2013-01-22 20:16:00,12.4,1.0,30.42,NW,310,0.0,4.0,60,0.00,,,0.00,weatherlink.com 1.10,2013-01-23 02:16:00,
2013-01-22 20:31:00,12.3,1.0,30.42,WNW,294,1.0,4.0,61,0.00,,,0.00,weatherlink.com 1.10,2013-01-23 02:31:00,
2013-01-22 20:46:00,12.1,1.0,30.43,WNW,283,0.0,4.0,62,0.00,,,0.00,weatherlink.com 1.10,2013-01-23 02:46:00,
2013-01-22 21:01:00,11.2,1.0,30.44,West,269,0.0,2.0,64,0.00,,,0.00,weatherlink.com 1.10,2013-01-23 03:01:00,
2013-01-22 21:16:00,10.2,1.0,30.44,West,276,0.0,1.0,67,0.00,,,0.00,weatherlink.com 1.10,2013-01-23 03:16:00,
2013-01-22 21:31:00,9.8,1.0,30.44,West,276,0.0,1.0,68,0.00,,,0.00,weatherlink.com 1.10,2013-01-23 03:31:00,
2013-01-22 21:46:00,9.5,2.0,30.44,West,276,0.0,1.0,70,0.00,,,0.00,weatherlink.com 1.10,2013-01-23 03:46:00,
2013-01-22 22:01:00,10.4,2.0,30.44,West,276,0.0,1.0,69,0.00,,,0.00,weatherlink.com 1.10,2013-01-23 04:01:00,
2013-01-22 22:16:00,10.8,3.0,30.44,West,276,0.0,1.0,69,0.00,,,0.00,weatherlink.com 1.10,2013-01-23 04:16:00,
2013-01-22 22:31:00,11.5,2.0,30.43,West,281,0.0,2.0,67,0.00,,,0.00,weatherlink.com 1.10,2013-01-23 04:31:00,